SCP
0 0 0 0 0 0 0 0 -0 -0 -0 -0 0 0 0 0 0 0 0 0 0 0 0 1 1 1 2 1 1 1 1 1 1 1 0 0 1 1 1 1 1 0 0
0 0 0 0 0 0 0 0 0 0 0 -0 0 0 0 0 0 0 0 0 0 0 1 1 1 1 1 1 1 1 1 1 1 1 1 1 1 1 0 0 1 1 1
0 0 0 0 0 0 0 0 0 0 -0 0 0 0 0 0 0 0 0 0 0 0 1 1 0 0 0 0 1 1 1 1 1 1 1 1 1 1 0 0 0 0 0
0 0 0 0 0 0 0 0 0 0 0 0 0 0 0 0 0 0 0 0 0 0 0 0 0 0 0 0 0 0 1 1 1 1 1 1 1 1 1 0 0 0 0
0 0 0 0 0 0 0 0 0 0 0 0 0 0 0 0 0 0 0 0 0 0 0 0 0 0 0 0 0 0 0 1 1 1 1 1 1 1 1 1 0 0 0
0 0 0 1 0 0 0 0 0 0 0 0 0 0 0 0 0 0 0 0 0 0 0 0 0 0 0 0 0 0 0 0 0 1 1 1 1 1 1 1 0 0 0
0 1 0 0 0 0 0 0 0 0 0 0 0 0 0 0 0 0 0 0 0 0 0 0 0 0 0 0 0 0 0 0 0 0 0 0 1 0 0 1 0 0 0
1 1 1 0 0 0 0 -0 0 0 0 0 0 0 0 0 0 0 0 0 0 0 0 0 0 0 0 0 0 0 0 0 0 0 0 0 0 0 0 0 0 0 0
0 0 0 0 0 0 -0 0 0 0 0 0 0 0 0 0 0 0 0 0 0 0 0 0 0 0 0 0 0 0 0 0 0 0 0 0 0 0 0 0 0 0 0
0 -0 -0 0 -0 -0 -0 0 0 0 0 0 0 0 0 0 0 0 0 0 0 0 0 0 0 0 0 0 0 0 0 0 0 0 0 0 0 0 0 0 0 0 0
0 0 0 0 0 0 0 0 0 0 0 0 0 0 0 0 0 0 0 0 0 0 0 0 0 0 0 0 0 0 0 0 0 0 0 0 0 0 0 0 0 0 0
0 0 0 0 0 0 0 0 0 0 0 0 0 0 0 0 0 0 0 0 0 0 0 0 0 0 0 0 0 0 0 0 0 0 0 0 0 0 0 0 0 0 0
0 0 0 0 0 0 0 0 0 0 0 0 0 0 0 0 0 0 0 0 0 0 0 0 0 0 0 0 0 0 0 0 0 0 0 0 0 0 0 0 0 0 0
-0 0 0 0 0 0 0 0 0 0 0 0 0 0 0 0 0 0 0 0 0 0 0 0 0 0 0 0 0 0 0 0 0 0 0 0 0 0 0 0 0 0 0
-0 -0 0 0 0 0 0 0 0 0 0 0 0 0 0 0 0 0 0 0 0 0 0 0 0 0 0 0 0 0 -0 -0 -0 0 0 0 0 0 0 0 0 0 0
-0 -0 0 0 0 0 0 0 0 0 0 0 0 0 0 0 0 0 0 0 0 0 0 0 0 0 0 0 0 0 0 0 0 0 -0 -0 -0 -0 0 0 0 0 0
0 0 0 0 0 0 0 0 0 0 0 0 0 0 0 0 0 0 0 0 0 0 0 0 0 0 0 0 0 0 0 0 0 0 0 -0 -0 -0 0 0 0 0 0
0 0 0 0 0 0 0 0 0 0 0 0 0 0 0 0 0 0 0 0 0 0 0 0 0 0 0 0 0 0 0 0 0 0 0 0 0 0 0 0 0 0 0
0 0 0 0 0 0 0 0 0 0 0 0 0 0 0 0 0 0 0 0 0 0 0 0 0 0 0 0 -0 0 0 0 0 0 0 0 0 0 0 0 0 0 0
0 0 0 0 0 0 0 0 0 0 0 0 0 0 0 0 0 0 0 0 0 0 0 0 0 0 0 0 -0 -0 0 0 0 0 0 0 0 0 0 0 0 0 0
0 0 0 0 0 0 0 0 0 0 0 0 0 0 0 0 0 0 0 0 0 0 0 0 0 0 0 0 -0 0 0 0 0 0 0 0 0 0 0 0 0 0 0
0 0 0 0 0 0 0 0 0 0 0 0 0 0 0 0 0 0 0 0 0 0 -0 0 0 0 0 0 0 0 0 0 0 0 0 0 0 0 0 0 0 0 0
0 0 0 0 0 0 0 0 0 0 0 0 0 0 0 0 0 0 0 0 0 0 0 0 0 0 0 0 0 0 0 0 0 0 0 0 0 0 0 0 0 0 0
0 0 0 0 0 0 0 0 0 0 0 0 0 0 0 0 0 0 -0 -0 0 0 -0 0 0 0 0 0 0 0 0 0 0 0 0 0 0 0 0 0 0 0 0
0 0 0 0 0 0 0 0 0 0 0 0 0 0 0 0 0 0 0 -0 -0 -0 -0 -0 0 0 0 0 0 0 0 0 0 0 0 0 0 0 0 0 0 0 0
0 0 0 0 0 0 0 0 0 0 0 0 0 0 0 0 0 0 -0 -0 -0 -0 -0 -0 -0 0 0 0 0 0 0 0 0 0 0 0 0 0 0 0 0 0 0
Wind_Speed_500mb
36 35 32 27 27 20 17 17 16 12 9 6 9 13 17 22 25 29 32 38 43 44 46 47 46 47 47 48 47 48 48 48 54 51 43 40 39 43 51 55 59 65 65
33 34 33 34 26 22 19 18 15 13 10 8 13 19 21 24 27 32 38 39 40 41 41 44 44 46 47 48 49 50 50 44 42 38 39 42 44 48 51 51 52 60 66
31 29 34 30 24 20 21 19 17 15 13 17 21 26 29 29 29 30 34 35 34 33 32 32 34 34 32 32 35 37 39 39 43 46 46 47 50 55 57 53 50 49 49
34 30 32 29 27 24 18 14 14 20 22 23 25 27 29 25 25 27 30 33 32 32 32 32 32 33 36 39 42 45 48 48 49 49 50 52 54 56 54 48 45 46 44
34 33 30 24 18 17 15 15 18 25 31 30 30 28 23 27 26 24 26 29 34 33 34 34 37 42 46 48 50 49 50 50 52 56 60 64 63 57 50 47 45 50 47
37 34 25 27 27 16 14 15 30 37 37 38 32 28 28 27 19 25 24 35 32 34 34 42 46 45 44 45 46 46 50 52 54 56 58 61 60 54 51 48 49 49 47
37 35 35 35 19 13 14 23 36 39 42 35 32 31 31 17 25 16 39 32 39 44 46 52 50 51 50 49 50 51 51 51 51 52 51 52 53 52 48 46 47 50 48
38 42 40 31 22 18 4 44 35 37 37 29 24 33 21 29 15 38 28 38 46 46 59 56 50 47 45 44 44 47 51 53 53 52 51 48 47 45 45 45 45 45 46
38 29 44 26 17 17 30 38 41 29 25 24 28 14 9 12 41 22 36 35 49 52 55 52 46 41 39 44 49 49 49 52 54 55 55 57 58 56 54 52 48 45 43
29 25 36 33 27 24 38 38 22 18 21 21 19 23 22 22 14 21 25 31 45 45 44 38 36 33 40 46 47 45 44 45 47 49 50 50 51 53 54 55 56 53 48
15 25 33 31 20 33 25 19 14 17 21 22 23 24 22 21 15 23 19 48 53 52 40 33 33 39 39 43 41 40 41 43 44 45 46 48 50 50 52 51 48 45 47
25 21 7 18 26 18 14 13 11 17 21 23 24 24 24 22 24 26 39 52 54 51 44 40 32 36 39 37 39 42 44 45 46 47 48 47 48 49 51 50 49 46 42
5 2 13 17 13 12 9 9 12 16 19 20 20 21 19 22 28 33 37 41 50 57 53 45 43 36 36 40 44 48 45 39 40 44 43 44 48 50 49 49 50 51 51
14 22 15 13 9 5 3 7 10 12 15 19 19 20 24 26 26 31 35 42 48 45 47 42 46 46 42 41 49 50 38 28 39 43 40 42 45 46 44 47 48 50 51
17 11 10 10 8 1 6 9 14 18 19 23 25 21 18 17 22 31 36 40 34 28 38 45 60 49 44 43 48 54 46 37 40 43 42 43 42 43 48 44 42 43 44
14 18 12 10 4 5 8 14 20 20 19 18 15 13 17 21 26 29 34 32 30 32 30 50 53 46 39 39 44 48 51 44 38 39 39 43 36 39 45 49 46 43 43
25 19 13 9 3 6 12 16 15 17 15 17 19 22 24 25 28 29 29 30 34 38 45 55 53 48 42 44 46 48 50 47 40 38 37 42 41 42 46 50 48 44 45
25 19 12 5 6 12 13 14 17 19 20 18 23 25 21 22 24 28 34 35 35 32 43 56 62 61 52 51 52 54 55 54 50 34 36 41 45 45 48 46 42 45 46
18 11 2 6 9 10 13 18 20 19 20 25 23 18 18 18 22 27 31 32 37 41 42 47 55 54 54 56 58 55 58 61 59 41 47 53 51 52 54 48 46 47 50
12 4 5 11 13 14 17 19 19 20 21 15 13 9 16 20 26 28 32 37 42 48 51 53 58 60 60 59 57 65 71 69 69 57 54 54 59 65 62 48 56 47 51
7 6 13 14 14 13 15 17 17 14 11 6 6 10 13 23 23 30 34 39 44 49 55 59 62 65 65 68 67 67 70 76 74 58 65 62 64 68 67 52 65 54 52
11 13 14 13 12 13 13 13 10 12 5 3 5 10 18 20 19 25 29 35 43 50 57 62 65 64 65 60 64 64 68 75 77 69 71 63 63 77 74 44 62 64 67
14 16 16 13 12 11 12 13 10 4 2 3 9 16 24 25 23 26 29 33 39 45 50 56 63 61 65 63 64 64 62 62 63 71 67 66 62 78 71 47 60 68 75
14 15 15 13 11 10 11 13 13 12 10 10 15 17 25 27 28 33 39 44 48 52 54 59 60 62 60 58 56 56 57 58 61 57 43 56 76 63 77 49 64 69 78
17 17 16 13 12 11 10 11 13 13 9 11 15 23 24 28 34 41 48 53 56 58 59 62 58 55 51 47 45 46 46 51 60 59 22 59 73 76 71 60 74 71 78
15 16 14 14 16 14 14 14 15 14 14 14 15 19 25 30 38 47 53 57 61 63 69 68 60 49 42 37 32 35 41 43 48 56 41 68 62 62 65 60 74 73 76
Wind_Direction_500mb
207 204 198 186 175 175 166 176 188 188 200 248 305 327 323 316 314 311 307 310 310 306 304 303 301 297 297 295 294 296 294 291 289 296 302 305 303 294 286 284 281 276 273
208 205 195 185 187 180 182 196 203 224 248 294 314 311 308 312 309 311 312 312 311 308 307 303 299 295 296 297 296 294 292 290 290 293 300 302 303 302 300 296 288 282 276
199 193 194 192 187 193 213 227 244 251 261 286 294 305 314 318 317 317 312 312 313 315 315 312 309 304 302 300 299 301 296 292 288 290 298 302 300 297 299 298 298 292 290
196 195 196 200 204 218 225 242 248 265 275 290 303 315 319 318 316 311 313 314 314 316 313 311 309 305 305 305 302 304 302 298 293 292 293 292 295 297 296 295 299 301 302
198 201 202 205 211 223 244 261 276 287 290 301 305 309 313 312 313 319 319 322 322 323 320 315 310 307 305 305 303 302 299 295 293 293 294 296 298 296 291 293 299 307 306
199 207 217 218 220 254 286 300 304 286 299 295 301 310 316 320 318 321 331 327 320 320 321 320 316 313 312 311 311 310 307 303 298 295 294 294 296 296 292 290 297 303 304
207 218 215 212 220 254 274 282 268 286 285 294 306 312 322 323 315 312 324 320 321 317 319 320 317 314 311 308 306 306 304 303 303 302 300 298 296 294 292 292 296 298 300
216 224 227 213 218 141 185 280 286 282 283 292 320 327 316 311 303 310 322 312 315 313 321 326 324 324 325 319 310 305 305 303 301 299 299 300 299 299 298 300 298 298 291
223 220 230 208 172 168 238 280 269 275 284 311 322 330 310 284 311 294 314 314 316 315 323 331 333 334 328 324 323 319 314 310 308 305 301 296 293 293 294 295 296 295 291
182 52 43 35 177 198 256 261 270 280 301 312 326 324 326 315 298 305 318 322 327 333 334 342 344 342 335 331 327 326 324 319 316 312 309 305 300 297 295 292 289 285 285
98 108 117 154 198 244 237 251 265 299 303 319 325 331 328 334 321 325 320 337 344 353 4 5 355 349 346 341 343 347 344 337 331 323 316 308 304 300 295 290 290 291 283
137 113 166 217 198 198 207 246 295 306 316 321 327 336 343 346 344 349 340 342 347 360 8 5 3 355 347 346 343 335 333 333 335 330 319 313 310 305 300 296 290 286 282
341 201 236 215 179 188 222 273 315 319 319 326 337 343 351 351 351 350 352 352 346 351 360 11 12 5 354 347 345 342 336 338 340 335 325 322 315 309 303 297 294 290 285
185 254 198 172 167 200 266 335 329 324 342 339 345 349 352 352 354 359 356 348 345 344 349 358 1 358 348 349 348 351 349 349 352 356 347 341 342 338 318 303 295 290 288
234 244 180 163 183 213 351 339 336 336 332 336 344 350 1 4 10 7 351 347 350 342 338 336 343 345 348 348 355 3 358 342 341 341 348 345 344 348 353 342 320 313 306
193 208 172 195 212 287 322 341 338 338 343 352 359 12 30 30 15 5 359 16 18 2 340 342 344 340 349 344 354 356 1 357 359 354 354 353 350 345 342 338 330 323 317
176 165 176 205 238 330 341 347 356 2 12 33 45 47 36 29 22 11 10 18 21 7 355 1 3 357 358 345 352 353 352 356 358 4 4 2 352 343 338 333 331 327 321
160 167 176 205 329 341 357 10 19 25 29 43 49 47 32 28 19 8 11 14 9 0 353 356 1 3 3 353 352 347 350 353 358 354 355 352 344 344 341 342 335 334 330
159 163 158 340 352 13 23 28 28 26 28 46 48 35 13 17 15 12 8 5 3 360 355 348 348 356 358 356 351 349 354 354 352 356 355 2 4 1 355 340 333 322 326
148 133 4 5 16 26 30 31 25 16 16 51 39 11 349 352 4 2 360 358 356 355 350 349 346 344 346 348 349 350 349 350 351 356 350 359 360 356 354 350 347 331 321
117 48 28 29 34 38 35 29 19 1 24 58 25 340 328 342 346 347 350 353 352 348 346 347 345 341 340 339 343 344 339 340 345 353 339 349 353 355 350 345 349 339 323
85 58 47 51 51 48 35 22 2 354 44 79 311 305 314 329 331 339 346 349 346 345 344 343 343 337 333 332 329 333 334 338 342 347 338 336 338 350 351 344 350 348 340
69 53 52 55 51 43 28 16 6 344 343 319 300 318 324 332 338 341 338 342 342 343 341 340 339 337 329 329 324 321 325 328 332 339 343 332 333 341 349 343 352 348 352
73 64 69 66 55 42 24 16 9 21 1 317 311 317 322 332 336 337 337 338 338 339 338 341 340 334 328 322 315 315 319 321 328 349 341 326 338 335 344 348 352 351 353
63 62 58 54 50 42 20 8 10 14 360 328 314 323 327 330 333 332 334 336 336 334 336 340 338 332 327 322 315 315 320 331 338 345 332 329 342 335 339 351 347 353 353
51 52 43 40 34 23 21 10 6 6 357 341 326 322 325 331 331 330 332 333 333 337 338 336 336 336 337 335 329 331 334 340 338 338 331 334 340 342 332 341 343 351 351
Wind_Speed_850mb
36 35 32 27 27 20 17 17 16 12 9 6 9 13 17 22 25 29 32 38 43 44 46 47 46 47 47 48 47 48 48 48 54 51 43 40 39 43 51 55 59 65 65
33 34 33 34 26 22 19 18 15 13 10 8 13 19 21 24 27 32 38 39 40 41 41 44 44 46 47 48 49 50 50 44 42 38 39 42 44 48 51 51 52 60 66
31 29 34 30 24 20 21 19 17 15 13 17 21 26 29 29 29 30 34 35 34 33 32 32 34 34 32 32 35 37 39 39 43 46 46 47 50 55 57 53 50 49 49
34 30 32 29 27 24 18 14 14 20 22 23 25 27 29 25 25 27 30 33 32 32 32 32 32 33 36 39 42 45 48 48 49 49 50 52 54 56 54 48 45 46 44
34 33 30 24 18 17 15 15 18 25 31 30 30 28 23 27 26 24 26 29 34 33 34 34 37 42 46 48 50 49 50 50 52 56 60 64 63 57 50 47 45 50 47
37 34 25 27 27 16 14 15 30 37 37 38 32 28 28 27 19 25 24 35 32 34 34 42 46 45 44 45 46 46 50 52 54 56 58 61 60 54 51 48 49 49 47
37 35 35 35 19 13 14 23 36 39 42 35 32 31 31 17 25 16 39 32 39 44 46 52 50 51 50 49 50 51 51 51 51 52 51 52 53 52 48 46 47 50 48
38 42 40 31 22 18 4 44 35 37 37 29 24 33 21 29 15 38 28 38 46 46 59 56 50 47 45 44 44 47 51 53 53 52 51 48 47 45 45 45 45 45 46
38 29 44 26 17 17 30 38 41 29 25 24 28 14 9 12 41 22 36 35 49 52 55 52 46 41 39 44 49 49 49 52 54 55 55 57 58 56 54 52 48 45 43
29 25 36 33 27 24 38 38 22 18 21 21 19 23 22 22 14 21 25 31 45 45 44 38 36 33 40 46 47 45 44 45 47 49 50 50 51 53 54 55 56 53 48
15 25 33 31 20 33 25 19 14 17 21 22 23 24 22 21 15 23 19 48 53 52 40 33 33 39 39 43 41 40 41 43 44 45 46 48 50 50 52 51 48 45 47
25 21 7 18 26 18 14 13 11 17 21 23 24 24 24 22 24 26 39 52 54 51 44 40 32 36 39 37 39 42 44 45 46 47 48 47 48 49 51 50 49 46 42
5 2 13 17 13 12 9 9 12 16 19 20 20 21 19 22 28 33 37 41 50 57 53 45 43 36 36 40 44 48 45 39 40 44 43 44 48 50 49 49 50 51 51
14 22 15 13 9 5 3 7 10 12 15 19 19 20 24 26 26 31 35 42 48 45 47 42 46 46 42 41 49 50 38 28 39 43 40 42 45 46 44 47 48 50 51
17 11 10 10 8 1 6 9 14 18 19 23 25 21 18 17 22 31 36 40 34 28 38 45 60 49 44 43 48 54 46 37 40 43 42 43 42 43 48 44 42 43 44
14 18 12 10 4 5 8 14 20 20 19 18 15 13 17 21 26 29 34 32 30 32 30 50 53 46 39 39 44 48 51 44 38 39 39 43 36 39 45 49 46 43 43
25 19 13 9 3 6 12 16 15 17 15 17 19 22 24 25 28 29 29 30 34 38 45 55 53 48 42 44 46 48 50 47 40 38 37 42 41 42 46 50 48 44 45
25 19 12 5 6 12 13 14 17 19 20 18 23 25 21 22 24 28 34 35 35 32 43 56 62 61 52 51 52 54 55 54 50 34 36 41 45 45 48 46 42 45 46
18 11 2 6 9 10 13 18 20 19 20 25 23 18 18 18 22 27 31 32 37 41 42 47 55 54 54 56 58 55 58 61 59 41 47 53 51 52 54 48 46 47 50
12 4 5 11 13 14 17 19 19 20 21 15 13 9 16 20 26 28 32 37 42 48 51 53 58 60 60 59 57 65 71 69 69 57 54 54 59 65 62 48 56 47 51
7 6 13 14 14 13 15 17 17 14 11 6 6 10 13 23 23 30 34 39 44 49 55 59 62 65 65 68 67 67 70 76 74 58 65 62 64 68 67 52 65 54 52
11 13 14 13 12 13 13 13 10 12 5 3 5 10 18 20 19 25 29 35 43 50 57 62 65 64 65 60 64 64 68 75 77 69 71 63 63 77 74 44 62 64 67
14 16 16 13 12 11 12 13 10 4 2 3 9 16 24 25 23 26 29 33 39 45 50 56 63 61 65 63 64 64 62 62 63 71 67 66 62 78 71 47 60 68 75
14 15 15 13 11 10 11 13 13 12 10 10 15 17 25 27 28 33 39 44 48 52 54 59 60 62 60 58 56 56 57 58 61 57 43 56 76 63 77 49 64 69 78
17 17 16 13 12 11 10 11 13 13 9 11 15 23 24 28 34 41 48 53 56 58 59 62 58 55 51 47 45 46 46 51 60 59 22 59 73 76 71 60 74 71 78
15 16 14 14 16 14 14 14 15 14 14 14 15 19 25 30 38 47 53 57 61 63 69 68 60 49 42 37 32 35 41 43 48 56 41 68 62 62 65 60 74 73 76
Wind_Direction_850mb
207 204 198 186 175 175 166 176 188 188 200 248 305 327 323 316 314 311 307 310 310 306 304 303 301 297 297 295 294 296 294 291 289 296 302 305 303 294 286 284 281 276 273
208 205 195 185 187 180 182 196 203 224 248 294 314 311 308 312 309 311 312 312 311 308 307 303 299 295 296 297 296 294 292 290 290 293 300 302 303 302 300 296 288 282 276
199 193 194 192 187 193 213 227 244 251 261 286 294 305 314 318 317 317 312 312 313 315 315 312 309 304 302 300 299 301 296 292 288 290 298 302 300 297 299 298 298 292 290
196 195 196 200 204 218 225 242 248 265 275 290 303 315 319 318 316 311 313 314 314 316 313 311 309 305 305 305 302 304 302 298 293 292 293 292 295 297 296 295 299 301 302
198 201 202 205 211 223 244 261 276 287 290 301 305 309 313 312 313 319 319 322 322 323 320 315 310 307 305 305 303 302 299 295 293 293 294 296 298 296 291 293 299 307 306
199 207 217 218 220 254 286 300 304 286 299 295 301 310 316 320 318 321 331 327 320 320 321 320 316 313 312 311 311 310 307 303 298 295 294 294 296 296 292 290 297 303 304
207 218 215 212 220 254 274 282 268 286 285 294 306 312 322 323 315 312 324 320 321 317 319 320 317 314 311 308 306 306 304 303 303 302 300 298 296 294 292 292 296 298 300
216 224 227 213 218 141 185 280 286 282 283 292 320 327 316 311 303 310 322 312 315 313 321 326 324 324 325 319 310 305 305 303 301 299 299 300 299 299 298 300 298 298 291
223 220 230 208 172 168 238 280 269 275 284 311 322 330 310 284 311 294 314 314 316 315 323 331 333 334 328 324 323 319 314 310 308 305 301 296 293 293 294 295 296 295 291
182 52 43 35 177 198 256 261 270 280 301 312 326 324 326 315 298 305 318 322 327 333 334 342 344 342 335 331 327 326 324 319 316 312 309 305 300 297 295 292 289 285 285
98 108 117 154 198 244 237 251 265 299 303 319 325 331 328 334 321 325 320 337 344 353 4 5 355 349 346 341 343 347 344 337 331 323 316 308 304 300 295 290 290 291 283
137 113 166 217 198 198 207 246 295 306 316 321 327 336 343 346 344 349 340 342 347 360 8 5 3 355 347 346 343 335 333 333 335 330 319 313 310 305 300 296 290 286 282
341 201 236 215 179 188 222 273 315 319 319 326 337 343 351 351 351 350 352 352 346 351 360 11 12 5 354 347 345 342 336 338 340 335 325 322 315 309 303 297 294 290 285
185 254 198 172 167 200 266 335 329 324 342 339 345 349 352 352 354 359 356 348 345 344 349 358 1 358 348 349 348 351 349 349 352 356 347 341 342 338 318 303 295 290 288
234 244 180 163 183 213 351 339 336 336 332 336 344 350 1 4 10 7 351 347 350 342 338 336 343 345 348 348 355 3 358 342 341 341 348 345 344 348 353 342 320 313 306
193 208 172 195 212 287 322 341 338 338 343 352 359 12 30 30 15 5 359 16 18 2 340 342 344 340 349 344 354 356 1 357 359 354 354 353 350 345 342 338 330 323 317
176 165 176 205 238 330 341 347 356 2 12 33 45 47 36 29 22 11 10 18 21 7 355 1 3 357 358 345 352 353 352 356 358 4 4 2 352 343 338 333 331 327 321
160 167 176 205 329 341 357 10 19 25 29 43 49 47 32 28 19 8 11 14 9 0 353 356 1 3 3 353 352 347 350 353 358 354 355 352 344 344 341 342 335 334 330
159 163 158 340 352 13 23 28 28 26 28 46 48 35 13 17 15 12 8 5 3 360 355 348 348 356 358 356 351 349 354 354 352 356 355 2 4 1 355 340 333 322 326
148 133 4 5 16 26 30 31 25 16 16 51 39 11 349 352 4 2 360 358 356 355 350 349 346 344 346 348 349 350 349 350 351 356 350 359 360 356 354 350 347 331 321
117 48 28 29 34 38 35 29 19 1 24 58 25 340 328 342 346 347 350 353 352 348 346 347 345 341 340 339 343 344 339 340 345 353 339 349 353 355 350 345 349 339 323
85 58 47 51 51 48 35 22 2 354 44 79 311 305 314 329 331 339 346 349 346 345 344 343 343 337 333 332 329 333 334 338 342 347 338 336 338 350 351 344 350 348 340
69 53 52 55 51 43 28 16 6 344 343 319 300 318 324 332 338 341 338 342 342 343 341 340 339 337 329 329 324 321 325 328 332 339 343 332 333 341 349 343 352 348 352
73 64 69 66 55 42 24 16 9 21 1 317 311 317 322 332 336 337 337 338 338 339 338 341 340 334 328 322 315 315 319 321 328 349 341 326 338 335 344 348 352 351 353
63 62 58 54 50 42 20 8 10 14 360 328 314 323 327 330 333 332 334 336 336 334 336 340 338 332 327 322 315 315 320 331 338 345 332 329 342 335 339 351 347 353 353
51 52 43 40 34 23 21 10 6 6 357 341 326 322 325 331 331 330 332 333 333 337 338 336 336 336 337 335 329 331 334 340 338 338 331 334 340 342 332 341 343 351 351